DW1114 Weather Reports


Display with metric or nautical units.
time (UTC)temp
F
wind
direction
speed
MPH
gust
MPH
rain 1hr
in
rain 24hr
in
rain mn
in
humidity
%
barometer
mb
20260504173902 71 204 4.0 11.0 0.00 0.00 0.00 1007.5
20260504173403 70 212 3.0 11.0 0.00 0.00 0.00 1008.2
20260504172904 69 185 6.0 10.0 0.00 0.00 0.00 1007.8
20260504172403 70 202 4.0 8.0 0.00 0.00 0.00 1007.8
20260504171903 70 217 4.0 8.0 0.00 0.00 0.00 1008.2
20260504171402 70 228 3.0 12.0 0.00 0.00 0.00 1007.8
20260504170903 69 196 4.0 12.0 0.00 0.00 0.00 1007.5
20260504170404 69 199 4.0 10.0 0.00 0.00 0.00 1008.2
20260504160403 67 212 3.0 7.0 0.00 0.00 0.00 1008.5
20260504150903 64 197 4.0 7.0 0.00 0.00 0.00 1008.5
20260504150403 63 200 3.0 8.0 0.00 0.00 0.00 1008.2
20260504140903 60 184 3.0 10.0 0.00 0.00 0.00 1008.5
20260504140403 59 185 4.0 7.0 0.00 0.00 0.00 1008.8
20260504130403 56 184 4.0 7.0 0.00 0.00 0.00 1009.2
20260504110403 51 187 3.0 5.0 0.00 0.00 0.00 1008.8
20260504100403 50 200 1.0 5.0 0.00 0.00 0.00 1009.5
20260504081903 51 197 2.0 4.0 0.00 0.00 0.00 1010.2
20260504081403 51 205 1.0 5.0 0.00 0.00 0.00 1010.5
20260504080903 52 189 3.0 5.0 0.00 0.00 0.00 1010.2
20260504080402 51 189 2.0 5.0 0.00 0.00 0.00 1010.5
20260504070403 52 187 3.0 7.0 0.00 0.00 0.00 1010.9
20260504050424 53 188 3.0 5.0 0.00 0.00 0.00 1011.5
20260504045903 54 193 3.0 5.0 0.00 0.00 0.00 1011.5
20260504045403 54 196 3.0 5.0 0.00 0.00 0.00 1011.5
20260504044903 54 192 3.0 6.0 0.00 0.00 0.00 1011.9
20260504044403 54 192 3.0 6.0 0.00 0.00 0.00 1011.5
20260504043903 54 192 2.0 6.0 0.00 0.00 0.00 1011.5
20260504043402 54 188 3.0 5.0 0.00 0.00 0.00 1011.9
20260504042903 54 191 2.0 5.0 0.00 0.00 0.00 1011.5
20260504042402 54 187 3.0 7.0 0.00 0.00 0.00 1011.9
20260504041903 54 196 4.0 7.0 0.00 0.00 0.00 1011.5
20260504041403 54 190 3.0 4.0 0.00 0.00 0.00 1012.6
20260504040903 54 185 2.0 4.0 0.00 0.00 0.00 1012.2
20260504040402 54 183 3.0 4.0 0.00 0.00 0.00 1012.2
20260504035924 53 186 2.0 3.0 0.00 0.00 0.00 1011.5
20260504035403 53 195 2.0 3.0 0.00 0.00 0.00 1011.9
20260504034903 53 190 2.0 3.0 0.00 0.00 0.00 1012.2
20260504034403 53 184 2.0 3.0 0.00 0.00 0.00 1011.9
20260504033903 53 188 2.0 3.0 0.00 0.00 0.00 1011.9
20260504033403 53 188 2.0 2.0 0.00 0.00 0.00 1011.9
20260504032902 53 186 2.0 3.0 0.00 0.00 0.00 1012.9
20260504032403 53 189 2.0 3.0 0.00 0.00 0.00 1012.2
20260504031903 53 182 1.0 3.0 0.00 0.00 0.00 1012.2
20260504031403 52 200 0.0 3.0 0.00 0.00 0.00 1012.6
20260504030903 52 180 0.0 2.0 0.00 0.00 0.00 1012.6
20260504030402 52 168 0.0 2.0 0.00 0.00 0.00 1012.6
20260504025903 52 169 0.0 2.0 0.00 0.00 0.00 1012.2
20260504025403 52 163 0.0 2.0 0.00 0.00 0.00 1012.6
20260504024903 52 163 0.0 2.0 0.00 0.00 0.00 1012.6
20260504024403 52 161 0.0 2.0 0.00 0.00 0.00 1012.6
20260504023902 52 163 0.0 1.0 0.00 0.00 0.00 1012.9
20260504023424 52 183 0.0 2.0 0.00 0.00 0.00 1012.6
20260504022903 51 161 0.0 2.0 0.00 0.00 0.00 1012.9
20260504022403 51 171 0.0 3.0 0.00 0.00 0.00 1012.9
20260504021903 51 168 1.0 3.0 0.00 0.00 0.00 1012.2
20260504021403 51 157 0.0 3.0 0.00 0.00 0.00 1012.6
20260504020903 51 146 0.0 7.0 0.00 0.00 0.00 1012.6
20260504020424 51 143 0.0 7.0 0.00 0.00 0.00 1012.9
20260504015924 51 135 0.0 5.0 0.00 0.00 0.00 1012.6
20260504015424 51 168 0.0 3.0 0.00 0.00 0.00 1012.2
20260504014903 50 165 0.0 4.0 0.00 0.00 0.00 1012.6
20260504013403 51 138 0.0 5.0 0.00 0.00 0.00 1012.2
20260504012924 50 138 0.0 2.0 0.00 0.00 0.00 1012.6
20260504012446 50 146 0.0 2.0 0.00 0.00 0.00 1012.9
20260504011903 50 140 1.0 3.0 0.00 0.00 0.00 1012.6
20260504011403 50 156 2.0 3.0 0.00 0.00 0.00 1012.6
20260504010903 50 160 1.0 3.0 0.00 0.00 0.00 1012.2
20260504010403 50 158 0.0 4.0 0.00 0.00 0.00 1012.9
20260504005903 50 154 0.0 4.0 0.00 0.00 0.00 1012.6
20260504005403 50 135 0.0 3.0 0.00 0.00 0.00 1012.9
20260504004903 50 157 1.0 3.0 0.00 0.00 0.00 1012.6
20260504004403 50 156 0.0 4.0 0.00 0.00 0.00 1013.2
20260504003903 50 140 2.0 4.0 0.00 0.00 0.00 1013.2
20260504003403 50 146 2.0 4.0 0.00 0.00 0.00 1012.9
20260504002903 50 141 2.0 4.0 0.00 0.00 0.00 1013.2
20260504002403 50 145 2.0 4.0 0.00 0.00 0.00 1012.9
20260504001903 50 142 1.0 4.0 0.00 0.00 0.00 1012.6
20260504001403 50 156 2.0 3.0 0.00 0.00 0.00 1012.9
20260504000924 50 138 0.0 3.0 0.00 0.00 0.00 1013.6
20260504000403 50 119 0.0 3.0 0.00 0.00 0.00 1013.6
20260503235903 50 115 0.0 3.0 0.00 0.00 0.00 1012.6
20260503235403 50 136 2.0 3.0 0.00 0.00 0.00 1012.6
20260503234903 50 153 2.0 3.0 0.00 0.00 0.00 1012.6
20260503234404 50 140 2.0 3.0 0.00 0.00 0.00 1012.6
20260503233923 50 150 2.0 4.0 0.00 0.00 0.00 1012.9
20260503233403 50 149 3.0 4.0 0.00 0.00 0.00 1012.9
20260503232902 50 152 2.0 4.0 0.00 0.00 0.00 1012.2
20260503232403 50 144 2.0 4.0 0.00 0.00 0.00 1012.2
20260503231902 50 150 3.0 5.0 0.00 0.00 0.00 1012.6
20260503231403 50 125 2.0 5.0 0.00 0.00 0.00 1012.6
20260503225903 50 123 1.0 6.0 0.00 0.00 0.00 1013.2
20260503225403 50 137 2.0 6.0 0.00 0.00 0.00 1013.2
20260503224945 50 110 2.0 7.0 0.00 0.00 0.00 1013.2
20260503224403 50 119 2.0 7.0 0.00 0.00 0.00 1013.9
20260503223903 50 147 2.0 4.0 0.00 0.00 0.00 1014.3
20260503222903 51 129 2.0 6.0 0.00 0.00 0.00 1013.6
20260503222403 51 51 0.0 3.0 0.00 0.00 0.00 1013.9
20260503221902 51 81 1.0 4.0 0.00 0.00 0.00 1013.9
20260503221403 51 61 3.0 4.0 0.00 0.00 0.00 1014.3
20260503220925 51 48 1.0 5.0 0.00 0.00 0.00 1014.6
20260503220424 51 56 3.0 5.0 0.00 0.00 0.00 1013.9
20260503215924 51 59 2.0 4.0 0.00 0.00 0.00 1014.6
20260503215403 50 72 2.0 4.0 0.00 0.00 0.00 1013.9
20260503214902 50 79 0.0 5.0 0.00 0.00 0.00 1013.6
20260503214403 50 39 0.0 6.0 0.00 0.00 0.00 1014.3
20260503213923 49 52 2.0 6.0 0.00 0.00 0.00 1014.3
20260503213403 49 85 0.0 6.0 0.00 0.00 0.00 1014.6
20260503212903 49 66 0.0 5.0 0.00 0.00 0.00 1014.3
20260503212424 49 117 0.0 5.0 0.00 0.00 0.00 1014.3
20260503211903 50 11 0.0 20.0 0.00 0.00 0.00 1015.3
20260503211424 50 266 2.0 20.0 0.00 0.00 0.00 1015.6
20260503210903 53 286 6.0 17.0 0.00 0.00 0.00 1014.9
20260503210403 53 266 3.0 8.0 0.00 0.00 0.00 1014.9
20260503205904 53 232 3.0 13.0 0.00 0.00 0.00 1014.9
20260503205403 54 199 6.0 13.0 0.00 0.00 0.00 1014.9
20260503204903 56 206 4.0 15.0 0.00 0.00 0.00 1015.6
20260503204424 57 218 5.0 15.0 0.00 0.00 0.00 1015.6
20260503203903 58 283 5.0 10.0 0.00 0.00 0.00 1014.9
20260503203405 58 228 2.0 7.0 0.00 0.00 0.00 1014.6
20260503202903 58 230 2.0 14.0 0.00 0.00 0.00 1015.3
20260503202403 58 264 6.0 14.0 0.00 0.00 0.00 1014.9
20260503201903 59 199 6.0 10.0 0.00 0.00 0.00 1015.6
20260503201403 59 203 3.0 10.0 0.00 0.00 0.00 1014.6
20260503200924 59 198 5.0 10.0 0.00 0.00 0.00 1015.3
20260503200403 59 195 5.0 11.0 0.00 0.00 0.00 1014.6
20260503195903 60 232 3.0 11.0 0.00 0.00 0.00 1014.9
20260503195403 60 218 4.0 15.0 0.00 0.00 0.00 1014.9
20260503194903 61 259 6.0 23.0 0.00 0.00 0.00 1014.6
20260503194403 61 239 4.0 23.0 0.00 0.00 0.00 1014.9
20260503193902 62 249 4.0 18.0 0.00 0.00 0.00 1014.6
20260503193403 61 267 8.0 18.0 0.00 0.00 0.00 1014.6
20260503192902 62 252 7.0 17.0 0.00 0.00 0.00 1014.6
20260503192403 61 269 5.0 21.0 0.00 0.00 0.00 1015.3
20260503191903 61 252 7.0 21.0 0.00 0.00 0.00 1015.3
20260503191403 61 236 4.0 18.0 0.00 0.00 0.00 1015.3
20260503190902 61 226 4.0 11.0 0.00 0.00 0.00 1015.3
20260503190403 61 217 5.0 9.0 0.00 0.00 0.00 1015.3
20260503185903 61 193 3.0 9.0 0.00 0.00 0.00 1015.6
20260503185403 60 184 4.0 15.0 0.00 0.00 0.00 1015.3
20260503184903 60 239 4.0 15.0 0.00 0.00 0.00 1015.6
20260503184403 61 244 3.0 10.0 0.00 0.00 0.00 1015.6
20260503183903 60 210 5.0 10.0 0.00 0.00 0.00 1015.6
20260503183403 61 225 3.0 9.0 0.00 0.00 0.00 1016.3
20260503182903 60 197 3.0 14.0 0.00 0.00 0.00 1016.0
20260503182402 60 212 5.0 14.0 0.00 0.00 0.00 1016.0
20260503181903 60 227 4.0 12.0 0.00 0.00 0.00 1016.6
20260503181402 60 234 4.0 12.0 0.00 0.00 0.00 1016.6
20260503180903 60 202 4.0 12.0 0.00 0.00 0.00 1016.0
20260503180402 59 226 6.0 14.0 0.00 0.00 0.00 1015.6
20260503175903 59 271 4.0 14.0 0.00 0.00 0.00 1016.0
20260503175402 59 211 4.0 10.0 0.00 0.00 0.00 1016.6
20260503174903 59 213 5.0 10.0 0.00 0.00 0.00 1016.3
20260503174402 59 184 5.0 7.0 0.00 0.00 0.00 1016.0